#timestamp,LO_Frequency,Hit,StdDev 
1601488815.5,286047005.2,N
1601488835.3,286047003.3,N
1601488855.2,286047003.4,N
1601488875.0,286047005.6,N
1601488875.9,286047005.6,N
1601488895.8,286047004.5,N
1601488915.6,286047007.5,N
1601488935.4,286047004.7,N
1601488955.3,286047004.5,N
1601488975.1,286047004.7,N
1601488995.9,286047007.2,N
1601489015.7,286047005.1,N
1601489035.5,286047004.5,N
1601489055.4,286047009.1,Y
1601489075.2,286047003.1,P
1601489095.0,286047003.3,P
1601489095.9,286047003.3,P
1601489115.8,286047004.7,Y
1601489135.6,286047003.4,P
1601489155.5,286047002.9,P
1601489175.3,286047005.0,P
1601489195.1,286047005.4,Y
1601489215.9,286047002.1,P
1601489235.7,286047002.1,N
1601489255.6,286047002.4,P
1601489275.4,286047002.3,Y
1601489295.2,286047000.5,P
1601489315.1,286047002.5,N
1601489316.0,286047002.5,N
1601489335.8,286047002.3,N
1601489355.6,286047002.2,N
1601489375.5,286047004.0,Y
1601489395.3,286046999.4,P
1601489415.2,286046999.3,N
1601489435.9,286046998.9,N
1601489455.7,286046997.8,N
1601489475.6,286046997.1,N
1601489495.4,286046997.2,N
1601489515.2,286046997.0,N
1601489535.1,286046996.7,N
1601489536.0,286046996.7,N
1601489555.8,286046999.1,N
1601489575.7,286046998.8,N
1601489595.5,286046998.5,N
1601489615.3,286046998.2,N
1601489635.2,286047002.0,N
1601489655.0,286047001.8,N
1601489655.9,286047001.8,N
1601489675.8,286047002.1,N
1601489695.6,286047004.1,N
1601489715.4,286047003.4,N
1601489735.3,286047003.1,N
1601489755.1,286047005.1,N
1601489775.8,286047007.3,N
1601489795.7,286047008.7,N
1601489815.5,286047008.9,N
1601489835.4,286047008.2,N
1601489855.2,286047009.4,N
1601489875.0,286047009.7,N
1601489875.9,286047009.7,N
1601489895.8,286047008.6,N
1601489915.6,286047007.2,N
1601489935.4,286047008.2,N
1601489955.3,286047010.5,N
1601489975.1,286047008.9,N
1601489995.9,286047009.8,N
1601490015.7,286047010.3,N
1601490035.5,286047006.7,N
1601490055.4,286047006.7,N
1601490075.2,286047007.6,N
1601490095.0,286047005.4,N
1601490096.0,286047005.4,N
1601490115.8,286047004.2,N
1601490135.6,286047003.8,N
1601490155.5,286047003.6,N
1601490175.3,286047004.6,N
1601490195.1,286047007.5,N
1601490215.9,286047008.7,Y
1601490235.7,286047002.1,P
1601490255.6,286047003.9,N
1601490275.4,286047002.0,N
1601490295.2,286047003.4,N
1601490315.1,286047004.7,N
1601490316.0,286047004.7,N
1601490335.8,286047007.4,Y
1601490355.7,286047002.2,P
1601490375.5,286047002.7,P
1601490395.3,286047001.8,N
1601490415.2,286047001.5,N
1601490435.0,286047003.2,Y
1601490435.9,286047003.2,P
1601490455.8,286047002.0,P
1601490475.6,286046999.9,N
1601490495.4,286047000.5,N
1601490515.3,286047001.7,N
1601490535.1,286047002.8,N
1601490555.9,286047002.5,N
1601490575.7,286047002.7,N
1601490595.5,286047004.0,Y
1601490615.4,286047002.7,P
1601490635.2,286047000.5,N
1601490655.0,286047004.3,P
1601490656.0,286047004.3,Y
1601490675.8,286046998.7,P
1601490695.6,286046999.0,N
1601490715.5,286046999.5,N
1601490735.3,286046999.2,N
1601490755.1,286046999.5,N
1601490775.9,286046996.6,N
1601490795.7,286046999.2,N
1601490815.6,286046996.5,N
1601490835.4,286047001.2,N
1601490855.2,286047001.0,N
1601490875.1,286047000.1,N
1601490876.0,286047000.1,N
1601490895.8,286047002.7,N
1601490915.6,286047000.2,N
1601490935.5,286046998.3,N
1601490955.3,286047001.2,N
1601490975.2,286047002.6,N
1601490995.9,286047000.2,N
1601491015.7,286046998.7,N
1601491035.6,286046998.6,N
1601491055.4,286046998.8,N
1601491075.2,286046999.9,N
1601491095.1,286047002.5,N
1601491096.0,286047002.5,N
1601491115.8,286047002.4,N
1601491135.7,286046999.9,N
1601491155.5,286047000.0,N
1601491175.3,286047001.2,N
1601491195.2,286047002.4,N
1601491215.0,286047000.3,N
1601491215.9,286047000.3,N
1601491235.7,286047001.7,N
1601491255.6,286047003.6,N
1601491275.4,286047004.1,N
1601491295.3,286047011.9,Y
1601491315.1,286047009.0,P
1601491335.8,286047011.6,N
1601491355.7,286047013.1,N
1601491375.5,286047015.0,Y
1601491395.4,286047005.1,P
1601491415.2,286046999.7,N
1601491435.0,286046999.0,N
1601491435.9,286046999.0,N
1601491455.8,286046995.4,N
1601491475.6,286046994.4,N
1601491495.4,286046992.7,N
1601491515.3,286046990.3,N
16014915351601492275.5,286046995.4,P
1601492295.4,286046996.0,N
1601492315.2,286046994.9,N
1601492335.1,286046997.9,N
1601492336.0,286046997.9,N
1601492355.8,286046998.7,N
1601492375.6,286047000.2,N
1601492395.5,286047001.1,N
